{"data":{"norad_id":64316,"epoch":"2026-09-20T13:52:45.780960Z","epoch_age_seconds":130893,"freshness":"FRESH","line1":"1 64316U 25123AB  26263.57830765  .00010203  00000+0  35872-3 0  9996","line2":"2 64316  69.9991  60.5675 0003624 263.7600  96.3162 15.29594153 70876","mean_motion":15.29594153,"eccentricity":0.0003624,"inclination_deg":69.9991,"raan_deg":60.5675,"arg_perigee_deg":263.76,"mean_anomaly_deg":96.3162,"bstar":0.00035872,"rev_number":7087,"period_min":94.142619280789,"perigee_km":474.54030583996,"apogee_km":479.50892697953,"semimajor_km":6855.1616164097,"source":"CELESTRAK","updated_at":"2026-09-21T09:00:35.310274Z"}}